Location: ??????
(55.2000°N, 38.3000°E)
Time: 00:11:21
(UTC+00:00)

NOSS 3-2 (A) - Pass Details

Date: 15 November 2025
Orbit: 668 x 1535 km, 63.4° (Epoch: 11 December)

Event Time Altitude Azimuth Distance (km) Brightness Sun altitude
Exits shadow 01:31:50 42° 336° (NNW) 1,495 4.3 -29.2°
Maximum altitude 01:33:46 54° 23° (NNE) 1,351 4.3 -29.0°
Drops below altitude 10° 01:41:37 10° 100° (E) 3,339 7.2 -27.9°
Sets 01:44:50 0° 105° (ESE) 4,424 8.0 -27.4°
